EHI
0 0 0 0 0 0 1 2 1 1 1 0 0 0 1 2 2 1 1 1 0 0 0 0 0 0 1 2 2 2 2 2 1 1 2 2 1 0
1 1 0 0 0 0 1 2 3 3 2 1 1 1 0 1 1 1 0 0 0 0 0 0 0 0 0 1 1 1 1 1 0 0 1 1 1 0
4 3 2 2 1 1 2 4 5 5 4 2 2 2 1 1 1 0 0 0 0 0 0 0 0 0 0 0 0 0 0 0 0 0 0 0 0 0
7 6 5 4 4 4 4 5 5 6 5 3 3 3 3 2 1 0 1 2 1 1 0 0 0 0 0 0 0 0 0 0 0 0 0 0 0 0
10 10 9 8 7 6 5 4 4 5 4 3 3 3 3 3 1 1 2 3 3 2 1 1 0 0 0 0 0 0 0 0 0 0 0 0 0 0
12 12 11 11 9 7 5 3 3 3 3 2 3 3 3 3 3 2 2 2 2 2 2 2 1 1 0 0 0 0 0 0 0 0 0 0 0 0
12 12 12 10 8 5 2 1 1 1 1 1 1 2 3 3 3 3 2 1 1 1 3 3 3 2 1 0 0 0 0 0 0 0 0 0 0 0
10 10 11 9 6 2 1 0 0 0 0 0 1 2 3 3 3 3 3 2 1 1 3 4 4 3 2 1 0 0 0 0 0 0 0 0 0 0
9 9 10 9 6 3 2 0 0 0 0 0 1 2 3 3 3 3 3 3 3 3 3 4 4 4 3 2 1 0 0 0 0 0 0 0 0 0
9 8 8 8 6 4 3 2 1 0 1 1 1 3 3 3 2 2 3 3 3 3 3 3 3 4 3 3 2 1 0 0 0 0 0 0 0 0
7 7 6 5 4 3 4 4 3 1 1 1 1 2 2 1 1 1 1 3 3 3 3 3 3 3 3 3 3 2 1 0 0 0 0 0 0 0
6 6 4 3 2 1 3 4 3 2 1 1 0 1 1 0 0 0 1 2 3 3 3 3 3 3 3 3 3 2 1 0 0 0 0 0 0 0
5 5 3 1 1 0 1 3 2 1 1 1 1 1 0 0 0 0 1 2 3 3 3 3 3 3 3 3 2 1 0 0 0 0 0 0 0 0
4 3 2 1 0 0 1 1 1 1 3 4 3 2 1 0 0 0 0 1 2 2 2 2 2 3 3 2 1 0 0 0 0 0 0 0 0 0
1 2 1 0 0 0 0 0 1 2 5 6 5 4 1 0 0 0 0 0 1 1 1 1 1 1 2 2 1 0 0 0 0 0 0 0 0 0
0 0 0 0 0 0 0 0 0 2 4 5 5 4 2 1 0 0 0 0 0 0 0 0 0 0 1 1 1 0 0 0 0 0 0 0 0 0
0 0 0 0 0 0 0 0 0 0 2 3 3 2 1 1 0 0 0 0 0 0 0 0 0 0 0 0 0 0 0 0 0 0 0 1 1 0
0 0 0 0 0 0 0 0 0 0 0 1 1 0 0 0 0 0 0 0 0 0 0 0 0 0 0 0 0 0 0 0 0 0 2 3 3 1
0 0 0 0 0 0 0 0 0 0 0 0 0 0 0 0 0 0 0 0 0 0 0 0 0 0 0 0 0 0 0 0 0 0 2 3 3 2
0 0 0 0 0 0 0 0 0 0 0 0 0 0 0 0 0 0 0 0 0 0 0 0 0 0 0 0 0 0 0 0 0 0 1 1 1 1
1 0 0 0 0 0 0 0 0 0 0 0 0 0 0 1 0 0 0 0 0 0 0 0 0 0 0 0 0 0 0 0 0 0 0 0 0 0
1 0 0 0 0 0 0 0 0 0 0 0 0 0 0 0 0 0 0 0 0 0 0 0 0 0 0 0 0 0 0 0 0 0 0 0 0 0
1 0 0 0 0 0 0 1 1 1 0 0 1 1 1 0 0 0 0 0 0 0 0 0 0 0 0 0 0 0 0 0 0 0 0 0 0 0
Wind_Speed
2 2 1 1 1 2 2 3 3 2 3 3 2 2 2 2 4 3 3 5 6 6 6 5 5 5 5 4 5 5 4 4 4 5 6 6 7 8
1 1 1 1 1 1 2 2 2 3 3 3 2 2 2 3 4 3 4 6 7 7 7 6 6 5 5 5 5 5 5 5 5 5 5 5 5 6
2 1 2 2 1 2 1 1 2 2 2 3 2 2 2 2 2 2 3 3 3 7 7 7 7 6 5 5 5 5 5 5 6 6 6 6 6 6
3 2 2 2 2 2 1 2 2 2 2 3 3 2 3 3 3 3 3 3 3 5 7 7 7 6 6 6 5 5 5 5 6 6 6 6 6 6
3 3 3 2 2 2 2 2 2 1 1 2 3 2 2 2 1 2 3 2 3 4 5 7 7 7 7 6 6 6 6 6 6 6 6 6 6 6
3 3 3 4 4 3 2 2 1 1 1 1 2 2 2 2 1 2 2 2 3 2 3 3 4 6 7 7 7 7 6 6 6 6 6 6 6 6
3 3 4 4 5 4 3 2 2 1 1 1 2 2 2 2 2 2 2 2 3 2 1 2 2 2 3 5 7 7 7 7 7 7 7 7 6 6
3 4 3 3 4 4 5 5 4 4 3 3 3 3 4 3 2 2 2 1 3 2 1 3 2 3 3 3 6 7 8 8 8 7 7 7 7 7
3 3 3 2 2 2 3 4 4 6 7 5 5 5 4 4 3 2 3 3 4 3 1 3 2 3 4 4 6 8 8 8 8 8 7 7 7 7
4 4 3 3 3 3 3 3 3 4 5 4 5 6 5 4 5 4 4 3 3 2 2 2 3 3 4 3 6 8 8 8 8 8 7 7 7 7
4 4 4 5 5 5 3 3 4 5 5 5 6 6 7 7 4 2 1 1 2 3 2 2 2 2 2 3 4 6 8 8 8 8 7 7 7 6
3 4 5 5 5 6 4 4 5 5 4 3 4 5 4 5 5 5 4 3 2 3 3 2 2 1 2 2 2 2 3 6 7 7 7 7 6 4
3 3 4 6 6 7 6 5 7 5 3 3 3 3 3 3 3 4 4 4 4 4 3 2 2 2 2 2 2 2 2 2 3 3 5 6 7 6
4 3 4 5 6 7 6 7 8 5 2 2 2 3 3 4 4 4 5 5 5 6 4 4 3 3 2 2 3 2 2 2 3 3 3 4 5 7
4 5 6 6 5 4 6 7 5 3 3 3 4 5 4 4 3 2 3 3 4 5 4 4 4 3 3 4 3 2 2 2 3 3 3 3 3 4
3 4 5 4 4 4 4 4 3 4 4 5 4 4 3 2 3 2 2 2 2 4 4 4 5 5 3 4 4 3 3 3 3 3 3 3 3 3
2 1 1 1 2 2 2 2 3 3 4 4 3 3 3 3 3 2 2 2 2 3 4 2 2 3 4 4 3 3 3 3 3 3 3 2 2 3
2 1 2 2 3 3 3 3 3 4 4 4 4 4 3 3 3 2 2 3 3 4 4 3 1 0 1 2 4 3 3 3 3 3 3 3 2 3
2 1 2 3 3 3 3 3 3 4 3 3 4 4 4 3 3 4 3 3 3 4 4 3 2 3 3 3 4 4 4 3 3 3 3 3 3 3
1 2 3 3 3 3 3 3 3 3 3 3 4 3 3 4 4 4 4 4 4 4 3 3 3 4 5 5 3 3 5 5 4 4 3 2 1 1
3 3 3 3 3 3 3 3 3 3 3 3 3 3 3 3 4 4 4 5 4 3 4 4 5 5 3 1 1 2 2 4 6 5 4 3 1 1
3 3 3 3 3 3 3 3 3 3 3 3 3 3 3 3 4 5 4 3 4 4 4 3 2 1 1 3 3 3 1 0 0 1 1 4 4 4
3 3 3 3 3 2 2 2 3 2 2 2 3 3 3 3 3 4 4 4 3 3 2 2 1 1 1 2 2 2 2 2 1 1 1 1 1 2
Wind_Direction
237 235 228 238 220 211 191 178 175 235 275 267 265 252 228 218 221 210 214 218 220 225 230 232 223 218 219 218 218 216 221 229 228 229 230 232 234 235
239 239 261 259 253 231 205 201 187 191 238 251 245 248 241 236 221 213 223 223 228 228 226 227 224 217 212 214 215 215 217 221 220 219 223 227 226 224
264 236 253 255 257 261 236 218 210 186 230 272 262 252 239 246 250 236 234 229 234 229 226 223 222 218 213 213 214 215 217 220 220 217 220 222 219 220
250 247 259 261 251 262 249 246 239 210 203 251 273 259 243 238 243 247 245 232 230 228 223 222 222 220 219 219 215 214 219 223 223 218 217 217 216 218
233 229 241 234 248 249 242 247 253 252 207 214 263 270 265 252 253 265 256 257 245 233 224 227 227 223 221 223 222 221 221 224 223 220 217 214 217 218
239 229 228 223 229 232 233 236 230 234 222 213 257 276 274 268 240 250 275 273 263 261 250 235 227 228 229 228 226 226 224 223 221 215 210 209 211 214
253 242 236 232 234 229 225 214 195 204 212 221 243 265 267 260 249 240 251 274 275 249 255 255 238 244 244 238 232 226 222 222 221 216 210 207 208 213
252 259 255 249 255 249 238 223 203 200 210 216 231 238 248 243 246 237 233 257 277 255 210 262 221 244 248 236 235 223 220 220 220 217 215 209 209 214
243 250 262 258 255 258 256 250 244 235 217 207 222 234 235 229 221 237 230 225 246 242 192 264 250 251 254 247 233 221 220 220 220 218 217 214 211 215
240 236 234 246 246 233 238 252 259 255 238 223 227 237 237 230 214 220 227 247 268 253 181 240 255 253 257 251 240 224 222 223 224 220 218 217 215 216
250 242 230 237 245 226 217 238 263 273 269 255 248 247 250 244 220 187 221 227 274 270 214 205 249 267 271 262 250 230 226 225 224 224 221 219 216 210
259 251 242 237 236 221 213 220 247 262 272 289 280 276 266 258 229 203 201 211 233 260 236 196 228 219 281 274 255 239 229 232 229 226 222 217 205 191
250 255 253 244 242 235 224 223 235 243 249 254 267 275 274 259 242 224 208 204 214 241 228 189 213 206 219 269 282 241 219 218 213 225 223 215 200 185
242 251 255 254 256 245 235 240 241 237 236 240 255 262 260 257 251 239 227 224 224 233 224 193 207 205 206 243 262 258 234 222 206 209 202 195 200 200
241 247 257 260 260 251 244 243 234 222 220 235 247 253 251 253 253 254 254 240 247 249 234 213 212 210 200 219 231 227 229 229 205 203 196 195 194 183
258 262 260 253 249 253 261 251 228 220 216 230 241 251 261 262 255 241 248 251 265 278 260 232 216 205 221 228 217 227 215 213 205 200 191 196 196 194
236 251 264 257 256 260 257 250 236 229 231 238 241 253 263 263 263 249 236 235 240 261 275 274 244 220 216 206 218 231 223 221 210 183 166 190 214 210
176 216 246 247 243 246 241 245 238 235 235 231 233 238 246 251 259 253 233 231 242 253 257 253 236 336 348 286 219 215 222 219 206 182 172 183 226 229
161 232 246 249 249 247 240 236 240 242 236 234 236 239 242 246 244 246 241 240 246 249 254 242 207 192 218 252 267 213 205 211 191 189 193 194 209 221
229 245 255 258 255 248 245 244 246 253 245 242 241 240 237 240 243 244 239 236 243 248 254 248 226 213 215 227 238 256 220 202 193 197 196 182 210 231
244 251 253 256 258 250 245 245 242 245 249 246 244 244 238 235 241 242 241 245 240 239 242 247 244 235 220 176 229 263 256 214 197 187 174 163 178 201
245 246 250 252 253 249 245 245 245 247 251 248 252 252 250 241 242 241 240 241 240 239 242 249 240 217 189 205 226 237 245 230 125 93 157 179 173 188
244 243 247 251 248 244 242 244 248 249 244 247 253 254 251 247 249 245 239 235 238 245 248 247 233 199 206 199 206 214 205 186 142 108 353 334 193 191